CSN5657 ZBAD-ZSHC

Flight info

Callsign CSN5657
Flight time 1h 33m
Altitude 37100
Route ELKUR4K ELKUR W40 YQG/K0832S1160 W142 DALIM/K0824S1130 A593 DPX A470 OF W95 SAPIN A470 IGRAT IGRAT91
Aircraft B38M/M-SDE1FGHILORVWXY/HB1

Departure

Time 2026-05-08 21:11
Airport Beijing Daxing International Airport (ZBAD)

Arrival

Time 2026-05-08 22:45
Airport Hangzhou Xiaoshan International Airport (ZSHC)
Time Latitude Longitude Altitude Speed Heading
2026-05-08 20:39 39.50931 116.41706 332 ft 0 kts 185°
2026-05-08 21:02 39.50950 116.41707 91 ft 4 kts 181°
2026-05-08 21:03 39.50977 116.41706 90 ft 4 kts 172°
2026-05-08 21:03 39.51002 116.41696 90 ft 4 kts 148°
2026-05-08 21:03 39.51016 116.41676 88 ft 2 kts 96°
2026-05-08 21:03 39.51016 116.41675 88 ft 2 kts 95°
2026-05-08 21:06 39.51015 116.41679 88 ft 2 kts 95°
2026-05-08 21:07 39.51012 116.41737 88 ft 12 kts 95°
2026-05-08 21:07 39.51014 116.41890 87 ft 22 kts 84°
2026-05-08 21:07 39.51036 116.42110 91 ft 14 kts 83°
2026-05-08 21:07 39.51104 116.42178 89 ft 15 kts 354°
2026-05-08 21:08 39.51223 116.42159 90 ft 21 kts 352°
2026-05-08 21:08 39.51384 116.42142 87 ft 20 kts 12°
2026-05-08 21:08 39.51424 116.42283 87 ft 18 kts 85°
2026-05-08 21:08 39.51440 116.42455 90 ft 20 kts 83°
2026-05-08 21:09 39.51458 116.42642 88 ft 22 kts 82°
2026-05-08 21:09 39.51476 116.42844 89 ft 23 kts 83°
2026-05-08 21:09 39.51500 116.43040 93 ft 17 kts 75°
2026-05-08 21:09 39.51583 116.43122 96 ft 14 kts 17°
2026-05-08 21:10 39.51652 116.43171 101 ft 11 kts 70°
2026-05-08 21:10 39.51649 116.43263 101 ft 0 kts 104°
2026-05-08 21:10 39.51648 116.43266 101 ft 5 kts 103°
2026-05-08 21:11 39.51580 116.43643 100 ft 79 kts 103°
2026-05-08 21:11 39.51405 116.44606 97 ft 139 kts 103°
2026-05-08 21:11 39.51156 116.45981 356 ft 163 kts 104°
2026-05-08 21:11 39.50874 116.47484 839 ft 177 kts 104°
2026-05-08 21:12 39.50608 116.48996 1663 ft 173 kts 103°
2026-05-08 21:12 39.50329 116.50575 2111 ft 189 kts 103°
2026-05-08 21:12 39.50018 116.52335 2486 ft 211 kts 103°
2026-05-08 21:12 39.49669 116.54292 2787 ft 238 kts 104°
2026-05-08 21:13 39.49288 116.56430 3488 ft 245 kts 104°
2026-05-08 21:13 39.48888 116.58661 3993 ft 264 kts 105°
2026-05-08 21:13 39.48457 116.61059 4498 ft 282 kts 105°
2026-05-08 21:13 39.48009 116.63586 4764 ft 293 kts 104°
2026-05-08 21:14 39.47619 116.66199 4798 ft 297 kts 103°
2026-05-08 21:14 39.47227 116.68833 5026 ft 297 kts 103°
2026-05-08 21:14 39.46837 116.71438 5935 ft 297 kts 103°
2026-05-08 21:14 39.46434 116.74087 6661 ft 302 kts 104°
2026-05-08 21:15 39.45613 116.76554 7414 ft 299 kts 130°
2026-05-08 21:15 39.44083 116.78313 8150 ft 294 kts 156°
2026-05-08 21:15 39.42240 116.79369 8876 ft 296 kts 162°
2026-05-08 21:15 39.40321 116.80393 9634 ft 300 kts 162°
2026-05-08 21:16 39.38372 116.81413 10256 ft 308 kts 162°
2026-05-08 21:16 39.36320 116.82472 10608 ft 326 kts 162°
2026-05-08 21:16 39.34169 116.83571 11089 ft 338 kts 162°
2026-05-08 21:16 39.31969 116.84690 11827 ft 341 kts 162°
2026-05-08 21:17 39.29743 116.85818 12547 ft 346 kts 161°
2026-05-08 21:17 39.27486 116.86960 13306 ft 350 kts 161°
2026-05-08 21:17 39.25198 116.88117 14030 ft 356 kts 161°
2026-05-08 21:17 39.22876 116.89289 14718 ft 360 kts 161°
2026-05-08 21:18 39.20532 116.90471 15483 ft 363 kts 161°
2026-05-08 21:18 39.18168 116.91663 16205 ft 367 kts 161°
2026-05-08 21:18 39.15777 116.92868 16919 ft 371 kts 161°
2026-05-08 21:18 39.13364 116.94084 17617 ft 374 kts 160°
2026-05-08 21:19 39.10924 116.95312 18293 ft 378 kts 161°
2026-05-08 21:19 39.08463 116.96550 18881 ft 381 kts 161°
2026-05-08 21:19 39.06019 116.97778 19449 ft 384 kts 161°
2026-05-08 21:19 39.03513 116.99038 20020 ft 388 kts 161°
2026-05-08 21:20 39.00988 117.00305 20588 ft 391 kts 161°
2026-05-08 21:20 38.98446 117.01581 21139 ft 395 kts 161°
2026-05-08 21:20 38.95877 117.02868 21693 ft 398 kts 161°
2026-05-08 21:20 38.93280 117.04169 22236 ft 402 kts 161°
2026-05-08 21:21 38.90663 117.05479 22758 ft 405 kts 162°
2026-05-08 21:21 38.88244 117.06346 23205 ft 403 kts 176°
2026-05-08 21:21 38.85470 117.06312 23675 ft 398 kts 194°
2026-05-08 21:21 38.82890 117.05252 24019 ft 394 kts 211°
2026-05-08 21:22 38.80602 117.03253 24442 ft 389 kts 227°
2026-05-08 21:22 38.78859 117.00641 24827 ft 386 kts 240°
2026-05-08 21:22 38.77396 116.97742 25228 ft 388 kts 242°
2026-05-08 21:22 38.76006 116.94760 25661 ft 390 kts 244°
2026-05-08 21:23 38.74668 116.91739 26074 ft 391 kts 245°
2026-05-08 21:23 38.73363 116.88721 26490 ft 393 kts 245°
2026-05-08 21:23 38.72048 116.85636 26900 ft 395 kts 246°
2026-05-08 21:23 38.70733 116.82527 27300 ft 398 kts 246°
2026-05-08 21:24 38.69417 116.79405 27716 ft 400 kts 246°
2026-05-08 21:24 38.68092 116.76260 28115 ft 402 kts 246°
2026-05-08 21:24 38.66762 116.73106 28500 ft 404 kts 246°
2026-05-08 21:24 38.65170 116.70112 28874 ft 415 kts 232°
2026-05-08 21:25 38.63701 116.68434 29182 ft 423 kts 221°
2026-05-08 21:25 38.61065 116.66665 29556 ft 437 kts 204°
2026-05-08 21:25 38.58059 116.65860 29918 ft 448 kts 190°
2026-05-08 21:25 38.54943 116.65509 30207 ft 451 kts 191°
2026-05-08 21:26 38.51808 116.65116 30483 ft 453 kts 191°
2026-05-08 21:26 38.48707 116.64748 30787 ft 455 kts 191°
2026-05-08 21:26 38.45541 116.64381 31077 ft 457 kts 191°
2026-05-08 21:26 38.42361 116.64016 31372 ft 459 kts 191°
2026-05-08 21:27 38.39167 116.63650 31634 ft 461 kts 191°
2026-05-08 21:27 38.35971 116.63284 31957 ft 462 kts 191°
2026-05-08 21:27 38.32761 116.62917 32241 ft 464 kts 191°
2026-05-08 21:27 38.29521 116.62783 32514 ft 474 kts 179°
2026-05-08 21:28 38.26267 116.63659 32883 ft 481 kts 168°
2026-05-08 21:28 38.23043 116.64815 33079 ft 484 kts 169°
2026-05-08 21:28 38.19795 116.65986 33365 ft 486 kts 168°
2026-05-08 21:28 38.16543 116.67180 33718 ft 485 kts 169°
2026-05-08 21:29 38.13311 116.68376 34083 ft 484 kts 169°
2026-05-08 21:29 38.10083 116.69595 34380 ft 484 kts 168°
2026-05-08 21:29 38.06853 116.70832 34671 ft 484 kts 169°
2026-05-08 21:29 38.03633 116.72060 34958 ft 484 kts 169°
2026-05-08 21:30 38.00405 116.73289 35239 ft 483 kts 169°
2026-05-08 21:30 37.97187 116.74513 35504 ft 484 kts 169°
2026-05-08 21:30 37.93961 116.75739 35778 ft 483 kts 169°
2026-05-08 21:30 37.90742 116.76961 36035 ft 483 kts 169°
2026-05-08 21:31 37.87518 116.78184 36293 ft 483 kts 169°
2026-05-08 21:31 37.84304 116.79402 36546 ft 483 kts 169°
2026-05-08 21:31 37.81088 116.80620 36782 ft 483 kts 170°
2026-05-08 21:31 37.77870 116.81837 37003 ft 483 kts 170°
2026-05-08 21:32 37.74649 116.83055 37066 ft 483 kts 170°
2026-05-08 21:32 37.68266 116.85464 37031 ft 480 kts 170°
2026-05-08 21:33 37.61810 116.87896 37065 ft 481 kts 170°
2026-05-08 21:33 37.55447 116.90289 37051 ft 480 kts 170°
2026-05-08 21:34 37.49039 116.92695 37056 ft 480 kts 170°
2026-05-08 21:34 37.42639 116.95093 37070 ft 480 kts 171°
2026-05-08 21:35 37.36232 116.97489 37067 ft 479 kts 171°
2026-05-08 21:35 37.29841 116.99914 37070 ft 482 kts 167°
2026-05-08 21:36 37.23528 117.02809 37058 ft 483 kts 167°
2026-05-08 21:36 37.17222 117.05766 37085 ft 485 kts 167°
2026-05-08 21:37 37.10902 117.08722 37089 ft 484 kts 167°
2026-05-08 21:37 37.04588 117.11667 37086 ft 484 kts 167°
2026-05-08 21:38 36.98279 117.14605 37056 ft 484 kts 167°
2026-05-08 21:38 36.91953 117.17545 37099 ft 485 kts 167°
2026-05-08 21:39 36.85633 117.20470 37090 ft 483 kts 169°
2026-05-08 21:39 36.82425 117.21354 37079 ft 463 kts 185°
2026-05-08 21:39 36.79237 117.21430 37115 ft 459 kts 188°
2026-05-08 21:40 36.72842 117.21502 37088 ft 459 kts 189°
2026-05-08 21:40 36.66494 117.21479 37119 ft 459 kts 189°
2026-05-08 21:41 36.56928 117.21413 37136 ft 458 kts 189°
2026-05-08 21:41 36.50553 117.21368 37122 ft 457 kts 190°
2026-05-08 21:42 36.44183 117.21321 37146 ft 458 kts 189°
2026-05-08 21:42 36.40978 117.21713 37123 ft 474 kts 174°
2026-05-08 21:42 36.37798 117.22932 37186 ft 479 kts 171°
2026-05-08 21:43 36.31400 117.25203 37177 ft 480 kts 172°
2026-05-08 21:43 36.25000 117.27551 37169 ft 479 kts 172°
2026-05-08 21:44 36.18616 117.29916 37179 ft 479 kts 172°
2026-05-08 21:44 36.12233 117.32280 37176 ft 479 kts 172°
2026-05-08 21:45 36.05850 117.34639 37145 ft 478 kts 172°
2026-05-08 21:45 35.99487 117.36999 37189 ft 478 kts 172°
2026-05-08 21:46 35.93125 117.39386 37187 ft 477 kts 172°
2026-05-08 21:46 35.86800 117.41752 37191 ft 478 kts 172°
2026-05-08 21:47 35.80440 117.44127 37170 ft 477 kts 172°
2026-05-08 21:47 35.74096 117.46493 37195 ft 477 kts 172°
2026-05-08 21:48 35.67750 117.48855 37206 ft 476 kts 172°
2026-05-08 21:48 35.61413 117.51209 37212 ft 475 kts 172°
2026-05-08 21:49 35.55084 117.53557 37202 ft 475 kts 172°
2026-05-08 21:49 35.48756 117.55902 37209 ft 475 kts 172°
2026-05-08 21:50 35.42418 117.58245 37217 ft 475 kts 172°
2026-05-08 21:50 35.36120 117.60569 37218 ft 475 kts 172°
2026-05-08 21:51 35.29787 117.62904 37201 ft 475 kts 173°
2026-05-08 21:51 35.23449 117.65236 37218 ft 475 kts 173°
2026-05-08 21:52 35.17127 117.67558 37218 ft 475 kts 173°
2026-05-08 21:52 35.10798 117.69879 37221 ft 474 kts 173°
2026-05-08 21:53 35.04476 117.72197 37221 ft 474 kts 173°
2026-05-08 21:53 34.98155 117.74513 37224 ft 474 kts 173°
2026-05-08 21:54 34.91829 117.76828 37225 ft 474 kts 173°
2026-05-08 21:54 34.85508 117.79135 37226 ft 474 kts 173°
2026-05-08 21:55 34.79217 117.81413 37223 ft 474 kts 173°
2026-05-08 21:56 34.69719 117.84836 37228 ft 474 kts 173°
2026-05-08 21:56 34.63382 117.87115 37230 ft 475 kts 173°
2026-05-08 21:57 34.57052 117.89388 37204 ft 474 kts 173°
2026-05-08 21:57 34.50722 117.91657 37231 ft 474 kts 173°
2026-05-08 21:58 34.44391 117.93924 37236 ft 474 kts 173°
2026-05-08 21:58 34.38054 117.96189 37236 ft 474 kts 173°
2026-05-08 21:59 34.31722 117.98448 37203 ft 474 kts 172°
2026-05-08 21:59 34.25404 118.00731 37243 ft 474 kts 172°
2026-05-08 22:00 34.19123 118.03018 37243 ft 474 kts 172°
2026-05-08 22:00 34.12806 118.05313 37241 ft 474 kts 172°
2026-05-08 22:01 34.06480 118.07608 37201 ft 474 kts 172°
2026-05-08 22:01 34.00177 118.09896 37241 ft 473 kts 172°
2026-05-08 22:02 33.93877 118.12191 37240 ft 473 kts 172°
2026-05-08 22:02 33.87569 118.14484 37240 ft 473 kts 172°
2026-05-08 22:03 33.81311 118.16758 37207 ft 473 kts 172°
2026-05-08 22:03 33.75010 118.19055 37241 ft 473 kts 172°
2026-05-08 22:04 33.68709 118.21349 37243 ft 473 kts 172°
2026-05-08 22:04 33.62410 118.23638 37241 ft 473 kts 172°
2026-05-08 22:05 33.56100 118.25928 37217 ft 473 kts 172°
2026-05-08 22:05 33.49794 118.28212 37252 ft 473 kts 172°
2026-05-08 22:06 33.43492 118.30492 37250 ft 473 kts 172°
2026-05-08 22:06 33.37185 118.32770 37252 ft 473 kts 172°
2026-05-08 22:07 33.30886 118.35041 37227 ft 473 kts 172°
2026-05-08 22:07 33.24574 118.37314 37254 ft 474 kts 172°
2026-05-08 22:08 33.18290 118.39579 37254 ft 474 kts 172°
2026-05-08 22:08 33.11977 118.41853 37254 ft 474 kts 172°
2026-05-08 22:09 33.05646 118.44130 37256 ft 474 kts 172°
2026-05-08 22:09 32.99325 118.46399 37256 ft 474 kts 172°
2026-05-08 22:10 32.93007 118.48664 37256 ft 474 kts 172°
2026-05-08 22:10 32.86684 118.50927 37256 ft 474 kts 172°
2026-05-08 22:11 32.80365 118.53186 37261 ft 474 kts 172°
2026-05-08 22:11 32.74046 118.55441 37263 ft 475 kts 172°
2026-05-08 22:12 32.67750 118.57676 37262 ft 474 kts 172°
2026-05-08 22:12 32.61411 118.59828 37266 ft 474 kts 172°
2026-05-08 22:13 32.56141 118.61623 37265 ft 474 kts 172°
2026-05-08 22:13 32.49807 118.63777 37253 ft 474 kts 172°
2026-05-08 22:14 32.43467 118.65931 37262 ft 474 kts 172°
2026-05-08 22:14 32.37122 118.68082 37267 ft 474 kts 173°
2026-05-08 22:15 32.30783 118.70230 37265 ft 474 kts 173°
2026-05-08 22:15 32.24438 118.72361 37253 ft 474 kts 173°
2026-05-08 22:16 32.18084 118.74491 37262 ft 474 kts 173°
2026-05-08 22:16 32.11777 118.76602 37259 ft 474 kts 173°
2026-05-08 22:17 32.05434 118.78723 37268 ft 474 kts 173°
2026-05-08 22:17 31.99094 118.80829 36291 ft 475 kts 173°
2026-05-08 22:17 31.95898 118.81849 35643 ft 475 kts 173°
2026-05-08 22:18 31.92737 118.82864 35280 ft 467 kts 173°
2026-05-08 22:18 31.89618 118.83864 34903 ft 461 kts 172°
2026-05-08 22:18 31.86541 118.84850 34427 ft 457 kts 172°
2026-05-08 22:18 31.83481 118.85878 33831 ft 458 kts 170°
2026-05-08 22:19 31.80426 118.86943 33189 ft 457 kts 170°
2026-05-08 22:19 31.77390 118.88031 32688 ft 456 kts 166°
2026-05-08 22:19 31.74568 118.89793 32221 ft 465 kts 147°
2026-05-08 22:19 31.72169 118.92348 31820 ft 464 kts 141°
2026-05-08 22:20 31.69820 118.94888 31450 ft 457 kts 142°
2026-05-08 22:20 31.67433 118.97314 30996 ft 450 kts 150°
2026-05-08 22:20 31.64841 118.99347 30482 ft 448 kts 148°
2026-05-08 22:20 31.62357 119.01554 29948 ft 448 kts 147°
2026-05-08 22:21 31.59878 119.03736 29480 ft 444 kts 147°
2026-05-08 22:21 31.57416 119.05882 29100 ft 438 kts 148°
2026-05-08 22:21 31.54988 119.08016 28644 ft 435 kts 147°
2026-05-08 22:21 31.52577 119.10135 28239 ft 431 kts 147°
2026-05-08 22:22 31.50190 119.12229 27844 ft 427 kts 147°
2026-05-08 22:22 31.47821 119.14306 27453 ft 423 kts 147°
2026-05-08 22:22 31.45462 119.16368 26952 ft 423 kts 147°
2026-05-08 22:22 31.43107 119.18426 26511 ft 421 kts 147°
2026-05-08 22:23 31.40770 119.20466 26087 ft 418 kts 148°
2026-05-08 22:23 31.38443 119.22496 25668 ft 416 kts 148°
2026-05-08 22:23 31.36126 119.24517 25251 ft 414 kts 147°
2026-05-08 22:23 31.33819 119.26527 24830 ft 413 kts 147°
2026-05-08 22:24 31.31520 119.28529 24419 ft 411 kts 147°
2026-05-08 22:24 31.29254 119.30502 24011 ft 410 kts 147°
2026-05-08 22:24 31.26968 119.32491 23560 ft 409 kts 147°
2026-05-08 22:24 31.24684 119.34477 23091 ft 408 kts 147°
2026-05-08 22:25 31.22417 119.36447 22656 ft 405 kts 147°
2026-05-08 22:25 31.20162 119.38406 22253 ft 402 kts 147°
2026-05-08 22:25 31.17930 119.40360 21795 ft 401 kts 147°
2026-05-08 22:25 31.15701 119.42310 21404 ft 398 kts 146°
2026-05-08 22:26 31.13491 119.44242 21016 ft 395 kts 146°
2026-05-08 22:26 31.11297 119.46158 20594 ft 393 kts 147°
2026-05-08 22:26 31.09127 119.48053 20188 ft 386 kts 147°
2026-05-08 22:26 31.06994 119.49914 19797 ft 379 kts 147°
2026-05-08 22:27 31.04902 119.51738 19402 ft 373 kts 147°
2026-05-08 22:27 31.02841 119.53534 19016 ft 367 kts 147°
2026-05-08 22:27 31.00812 119.55302 18636 ft 361 kts 147°
2026-05-08 22:27 30.98809 119.57046 18220 ft 356 kts 147°
2026-05-08 22:28 30.96841 119.58759 17811 ft 350 kts 146°
2026-05-08 22:28 30.94932 119.60419 17448 ft 344 kts 146°
2026-05-08 22:28 30.93032 119.62070 17083 ft 337 kts 146°
2026-05-08 22:28 30.91165 119.63693 16729 ft 331 kts 146°
2026-05-08 22:29 30.89333 119.65283 16374 ft 325 kts 146°
2026-05-08 22:29 30.87530 119.66849 16032 ft 322 kts 146°
2026-05-08 22:29 30.85736 119.68404 15687 ft 321 kts 145°
2026-05-08 22:29 30.83944 119.69959 15342 ft 320 kts 145°
2026-05-08 22:30 30.82162 119.71504 15002 ft 320 kts 144°
2026-05-08 22:30 30.80381 119.73046 14663 ft 319 kts 145°
2026-05-08 22:30 30.78606 119.74582 14318 ft 318 kts 144°
2026-05-08 22:30 30.76833 119.76117 13979 ft 317 kts 144°
2026-05-08 22:31 30.75066 119.77646 13594 ft 316 kts 144°
2026-05-08 22:31 30.73302 119.79171 13228 ft 315 kts 144°
2026-05-08 22:31 30.71557 119.80696 12883 ft 313 kts 143°
2026-05-08 22:31 30.69848 119.82255 12527 ft 312 kts 142°
2026-05-08 22:32 30.68143 119.83807 12219 ft 309 kts 142°
2026-05-08 22:32 30.66457 119.85338 11908 ft 307 kts 142°
2026-05-08 22:32 30.64780 119.86860 11604 ft 305 kts 142°
2026-05-08 22:32 30.63011 119.88187 11251 ft 303 kts 154°
2026-05-08 22:33 30.61140 119.89310 10912 ft 302 kts 153°
2026-05-08 22:33 30.59289 119.90457 10562 ft 302 kts 152°
2026-05-08 22:33 30.57466 119.91603 10209 ft 302 kts 151°
2026-05-08 22:33 30.55640 119.92763 9950 ft 297 kts 151°
2026-05-08 22:34 30.53835 119.93917 9615 ft 295 kts 151°
2026-05-08 22:34 30.52043 119.95064 9293 ft 293 kts 150°
2026-05-08 22:34 30.50265 119.96203 8978 ft 291 kts 151°
2026-05-08 22:34 30.48503 119.97334 8658 ft 289 kts 151°
2026-05-08 22:35 30.46752 119.98456 8360 ft 286 kts 151°
2026-05-08 22:35 30.45016 119.99569 8050 ft 284 kts 151°
2026-05-08 22:35 30.43292 120.00667 7826 ft 279 kts 151°
2026-05-08 22:35 30.41614 120.01728 7744 ft 269 kts 151°
2026-05-08 22:36 30.39982 120.02761 7685 ft 267 kts 151°
2026-05-08 22:36 30.38349 120.03794 7624 ft 268 kts 151°
2026-05-08 22:36 30.36714 120.04829 7549 ft 267 kts 151°
2026-05-08 22:36 30.35084 120.05859 7482 ft 267 kts 151°
2026-05-08 22:37 30.33459 120.06887 7400 ft 266 kts 151°
2026-05-08 22:37 30.31832 120.07914 7332 ft 266 kts 151°
2026-05-08 22:37 30.30212 120.08938 7242 ft 265 kts 151°
2026-05-08 22:37 30.28598 120.09959 7167 ft 264 kts 151°
2026-05-08 22:38 30.26988 120.10986 7093 ft 264 kts 151°
2026-05-08 22:38 30.25387 120.12000 6935 ft 259 kts 151°
2026-05-08 22:38 30.23856 120.12954 6559 ft 256 kts 151°
2026-05-08 22:38 30.22283 120.13928 6015 ft 257 kts 151°
2026-05-08 22:39 30.20709 120.14897 5539 ft 255 kts 151°
2026-05-08 22:39 30.19147 120.15855 5058 ft 253 kts 151°
2026-05-08 22:39 30.17598 120.16799 4583 ft 251 kts 151°
2026-05-08 22:39 30.16111 120.17821 4100 ft 248 kts 137°
2026-05-08 22:40 30.15240 120.19468 3669 ft 245 kts 108°
2026-05-08 22:40 30.14884 120.21279 3494 ft 231 kts 104°
2026-05-08 22:40 30.14598 120.23035 3273 ft 214 kts 98°
2026-05-08 22:40 30.14820 120.24697 3071 ft 204 kts 75°
2026-05-08 22:41 30.15356 120.26145 2962 ft 191 kts 69°
2026-05-08 22:41 30.15922 120.27496 2772 ft 179 kts 68°
2026-05-08 22:41 30.16451 120.28710 2559 ft 159 kts 68°
2026-05-08 22:41 30.16933 120.29813 2355 ft 152 kts 68°
2026-05-08 22:42 30.17410 120.30897 2153 ft 152 kts 68°
2026-05-08 22:42 30.17892 120.31986 1928 ft 152 kts 68°
2026-05-08 22:42 30.18370 120.33074 1741 ft 152 kts 67°
2026-05-08 22:42 30.18852 120.34163 1530 ft 152 kts 66°
2026-05-08 22:43 30.19331 120.35246 1330 ft 152 kts 66°
2026-05-08 22:43 30.19810 120.36329 1125 ft 149 kts 66°
2026-05-08 22:43 30.20272 120.37395 930 ft 149 kts 66°
2026-05-08 22:43 30.20750 120.38470 705 ft 151 kts 64°
2026-05-08 22:44 30.21230 120.39558 514 ft 151 kts 64°
2026-05-08 22:44 30.21704 120.40628 317 ft 148 kts 63°
2026-05-08 22:44 30.22178 120.41692 110 ft 149 kts 63°
2026-05-08 22:44 30.22624 120.42700 34 ft 128 kts 63°
2026-05-08 22:45 30.22960 120.43463 38 ft 85 kts 63°
2026-05-08 22:45 30.23162 120.43904 34 ft 39 kts 57°
2026-05-08 22:45 30.23357 120.44117 34 ft 28 kts 35°
2026-05-08 22:45 30.23458 120.44088 34 ft 17 kts 326°
2026-05-08 22:46 30.23565 120.44016 34 ft 19 kts 333°
2026-05-08 22:46 30.23690 120.43943 34 ft 21 kts 333°
2026-05-08 22:46 30.23827 120.43863 34 ft 23 kts 333°
2026-05-08 22:46 30.23978 120.43775 34 ft 25 kts 333°
2026-05-08 22:47 30.24141 120.43679 34 ft 27 kts 333°
2026-05-08 22:47 30.24306 120.43582 34 ft 26 kts 333°
2026-05-08 22:47 30.24476 120.43483 34 ft 28 kts 333°
2026-05-08 22:47 30.24560 120.43360 34 ft 20 kts 241°
2026-05-08 22:48 30.24493 120.43212 34 ft 22 kts 243°
2026-05-08 22:48 30.24421 120.43047 34 ft 24 kts 243°
2026-05-08 22:48 30.24343 120.42905 34 ft 19 kts 202°
2026-05-08 22:48 30.24209 120.42886 34 ft 20 kts 173°
2026-05-08 22:49 30.24099 120.42942 34 ft 10 kts 154°
2026-05-08 22:49 30.24078 120.42928 34 ft 7 kts 265°
2026-05-08 22:49 30.24066 120.42863 34 ft 3 kts 242°
2026-05-08 22:50 30.24059 120.42848 34 ft 0 kts 242°
2026-05-08 22:50 30.24059 120.42847 34 ft 0 kts 242°